Find Starlink 3889

NORAD ID: 52331 Int'l Des: 2022-045 Owner: SPXS Country: US Constellation: starlink operational
LEOCIRCULAR

リアルタイム位置

3D地球を読み込み中...

Starlink 3889について

説明を読み込み中...

次回通過

Passes for default location (London). Set your location on the main map for personalized predictions.

高度履歴

Loading altitude history...

軌道要素

1 52331U 22045A 26119.05622530 -.00000546 00000-0 -16228-4 0 9999
2 52331 53.2187 343.0188 0001379 92.3041 267.8109 15.08835089223241
Epoch: Apr 29, 2026 • Age: 11 hours

現在のステータス

高度 540.5 km
速度 7.60 km/s
衛星直下点 26.96°N, 43.79°W
打ち上げ日 Apr 29, 2022
運用期間 3.9 years
タイプ internet

技術仕様

分類 Payload
質量 297.00 kg
乾燥質量 275.00 kg
総質量 297.00 kg
長さ 0.20 m
直径 2.80 m
スパン 9.00 m
形状 Box + pan
製造者 SPXS
バスタイプ Starlink
フェーズステータス In Orbit
所有者/国 SPXS/US

Most Searched